Weather in Bet'ki

Russia / Republic of Tatarstan     55°31′03″N   50°10′58″E
temp.,
°C
wind,
m/s
gust,
m/s
humid.,
%
clouds,
%
prec.,
mm/h
press.,
hPa
HPBL,
m
30 june, thu
thu3000:00+11nw457799 0.0 101477
03:00+10nw4680100 0.0 1013118
06:00+13nw4676100 0.0 1012228
09:00+17nw4664100 0.0 1010732
12:00+18nw67535 0.2 10091784
15:00+16nnw4967100 0.3 1009337
18:00+13ne6108110 0.3 1009417
21:00+9n61091100 1.4 1010458
1 july, fri
fri100:00+8n51093100 0.0 1010360
03:00+8n6991100 0.0 1011455
06:00+9nne5689100 0.0 1011503
09:00+11ne4581100 0.1 1012811
12:00+15ene5668100 0.1 10121174
15:00+17ne686769 0.2 10131471
18:00+16ne711815 0.5 1013750
21:00+12nne512930 0.6 1014261
2 july, sat
sat200:00+11ne511930 0.0 1014200
03:00+10ne5109329 0.0 1014187
06:00+13ne598497 0.0 1014260
09:00+18ne676480 0.0 1014689
12:00+20ne45584 0.0 10141257
15:00+21ne455751 0.0 10131498
18:00+20nne237055 0.0 101277
21:00+15nne34815 0.0 101262
3 july, sun
sun300:00+13nne45780 0.0 101269
03:00+12nne46820 0.0 101289
06:00+15nne35800 0.0 1012171
09:00+20nne346658 0.0 1011680
12:00+22n46570 0.0 10111531
15:00+20n576676 0.4 1011617
18:00+18nne61082100 1.1 1011488
21:00+14n49925 1.3 1012202
4 july, mon
mon400:00+13n478641 0.0 1012129
03:00+12n511903 0.0 1012209
06:00+14nne5118410 0.0 1014364
09:00+18ne68719 0.0 1014911
12:00+20ne565849 0.1 10151546
15:00+20e1367100 0.1 1015380
18:00+18se117198 0.0 101621
21:00+15sse11765 0.0 101712